Madisonville, KY

11:04 PM CST on December 06, 2019 (GMT -0600)
Madisonville

Weather History for K2I0 - November, 2019

Change the Weather History Date:

Monday, November 11, 2019

  Actual Average (KOWB) Record (KOWB)
Temperature  
Mean Temperature 41 °F -  
Max Temperature 57 °F 55 °F 77 °F (1949)
Min Temperature 24 °F 35 °F 20 °F (1950)
Degree Days  
Heating Degree Days 24    
Moisture  
Dew Point 32 °F    
Average Humidity 73    
Maximum Humidity 85    
Minimum Humidity 50    
Precipitation  
Precipitation 0.06 in - - ()
Sea Level Pressure  
Sea Level Pressure 30.12 in    
Wind  
Wind Speed 8 mph ()    
Max Wind Speed 26 mph    
Max Gust Speed 33 mph    
Visibility 7.4 miles    
Events Rain , Snow    
Averages and records for this station are not official NWS values.
T = Trace of Precipitation, MM = Missing Value Source: Averaged Metar Reports

Daily Weather History Graph

Daily Weather History Graph

Search for Another Location

Airport or City:

Astronomy

Nov. 11, 2019 Rise Set
Actual Time 6:24 AM CST 4:42 PM CST
Civil Twilight 5:56 AM CST 5:09 PM CST
Nautical Twilight 5:25 AM CST 5:41 PM CST
Astronomical Twilight 4:54 AM CST 6:11 PM CST
Moon 4:35 PM CST (11/11) 5:17 AM CST (11/11)
Length of Visible Light 11h 13m
Length of Day
10h 17m
Waxing Gibbous, 99% of the Moon is Illuminated
Nov 11
Waxing Gibbous
Nov 12
Full
Nov 19
Last Quarter
Nov 26
New
Dec 4
First Quarter

Hourly Weather History & Observations

Time (CST) Temp. Windchill Dew Point Humidity Pressure Visibility Wind Dir Wind Speed Gust Speed Precip Events Conditions
12:35 AM 40.8 °F - 35.4 °F 81% 30.04 in 10.0 mi Calm Calm - N/A   Clear
12:55 AM 41.2 °F - 36.3 °F 83% 30.04 in 10.0 mi Calm Calm - N/A   Clear
1:15 AM 40.3 °F - 35.6 °F 83% 30.04 in 10.0 mi Calm Calm - N/A   Clear
1:35 AM 40.5 °F - 35.2 °F 82% 30.04 in 10.0 mi Calm Calm - N/A   Clear
1:55 AM 40.5 °F 37.3 °F 35.6 °F 83% 30.04 in 10.0 mi South 4.6 mph - N/A   Clear
2:15 AM 44.4 °F 41.2 °F 37.4 °F 76% 30.04 in 10.0 mi South 5.8 mph - N/A   Clear
2:35 AM 45.1 °F 42.8 °F 36.5 °F 72% 30.04 in 10.0 mi South 4.6 mph - N/A   Clear
2:55 AM 46.4 °F 43.5 °F 37.2 °F 70% 30.04 in 10.0 mi South 5.8 mph - N/A   Clear
3:15 AM 46.8 °F - 37.4 °F 70% 30.04 in 10.0 mi South 4.6 mph - N/A   Clear
4:15 AM 46.4 °F 42.9 °F 37.4 °F 71% 30.02 in 10.0 mi South 6.9 mph - N/A   Clear
4:35 AM 46.0 °F 43.1 °F 37.4 °F 72% 30.02 in 10.0 mi SSW 5.8 mph - N/A   Scattered Clouds
4:55 AM 46.6 °F - 37.6 °F 71% 30.02 in 10.0 mi South 5.8 mph - N/A   Mostly Cloudy
5:35 AM 45.9 °F 43.6 °F 37.4 °F 72% 30.02 in 10.0 mi SSW 4.6 mph - N/A   Scattered Clouds
5:55 AM 45.9 °F 44.6 °F 37.4 °F 72% 30.02 in 10.0 mi SSW 3.5 mph - N/A   Scattered Clouds
6:15 AM 46.8 °F - 37.6 °F 70% 30.02 in 10.0 mi SW 3.5 mph - N/A   Mostly Cloudy
6:35 AM 47.8 °F - 37.8 °F 68% 30.02 in 10.0 mi SW 4.6 mph - N/A   Overcast
6:55 AM 48.7 °F - 38.3 °F 67% 30.03 in 10.0 mi SSW 5.8 mph - N/A   Overcast
7:35 AM 51.3 °F - 38.8 °F 63% 30.02 in 10.0 mi SSW 8.1 mph - N/A   Scattered Clouds
7:55 AM 51.8 °F - 38.8 °F 61% 30.03 in 10.0 mi SSW 8.1 mph - N/A   Clear
8:15 AM 52.5 °F - 39.2 °F 61% 30.03 in 10.0 mi SSW 5.8 mph - N/A   Scattered Clouds
8:35 AM 54.1 °F - 40.1 °F 59% 30.03 in 10.0 mi SSW 5.8 mph - N/A   Mostly Cloudy
8:55 AM 56.3 °F - 39.2 °F 53% 30.03 in 10.0 mi SW 8.1 mph - N/A   Mostly Cloudy
9:15 AM 56.7 °F - 39.4 °F 52% 30.03 in 10.0 mi SW 9.2 mph - N/A   Mostly Cloudy
9:35 AM 56.5 °F - 39.0 °F 52% 30.03 in 10.0 mi West 9.2 mph - N/A   Mostly Cloudy
9:55 AM 56.3 °F - 39.2 °F 53% 30.03 in 10.0 mi WSW 9.2 mph - N/A   Mostly Cloudy
10:35 AM 57.6 °F - 39.2 °F 50% 30.03 in 10.0 mi West 11.5 mph 18.4 mph N/A   Overcast
10:55 AM 56.5 °F - 39.7 °F 54% 30.04 in 10.0 mi West 9.2 mph - N/A   Overcast
11:15 AM 56.5 °F - 39.0 °F 52% 30.03 in 10.0 mi WNW 9.2 mph - N/A   Overcast
11:35 AM 55.4 °F - 39.2 °F 54% 30.03 in 10.0 mi NW 8.1 mph - N/A   Overcast
11:55 AM 54.5 °F - 40.1 °F 58% 30.03 in 10.0 mi NNW 10.4 mph - N/A   Overcast
12:15 PM 49.6 °F - 39.6 °F 68% 30.04 in 10.0 mi NNW 18.4 mph 24.2 mph N/A   Overcast
12:35 PM 46.6 °F - 38.3 °F 73% 30.05 in 7.0 mi NNW 11.5 mph 20.7 mph N/A   Overcast
1:15 PM 43.9 °F 37.5 °F 38.3 °F 81% 30.05 in 7.0 mi NW 12.7 mph 19.6 mph N/A Rain Rain
1:35 PM 43.2 °F 36.6 °F 38.1 °F 82% 30.06 in 7.0 mi NNW 12.7 mph 18.4 mph N/A Rain Light Rain
1:55 PM 42.8 °F 37.5 °F 37.8 °F 82% 30.07 in 7.0 mi NNW 9.2 mph - 0.01 in Rain Rain
2:15 PM 42.1 °F 36.1 °F 37.4 °F 83% 30.08 in 5.0 mi NNW 10.4 mph 18.4 mph 0.03 in Rain Light Rain
2:55 PM 40.5 °F 32.1 °F 35.6 °F 83% 30.10 in 5.0 mi North 16.1 mph 24.2 mph 0.03 in Rain Heavy Rain
3:15 PM 40.1 °F 31.6 °F 35.4 °F 83% 30.10 in 7.0 mi North 16.1 mph - 0.01 in Rain Rain
3:55 PM 36.7 °F 26.6 °F 32.0 °F 83% 30.13 in 2.5 mi North 18.4 mph 26.5 mph 0.02 in Rain Light Rain
4:15 PM 36.0 °F 26.0 °F 31.5 °F 84% 30.14 in 4.0 mi NNW 17.3 mph 25.3 mph N/A Rain Light Rain
4:35 PM 35.6 °F 25.9 °F 31.1 °F 84% 30.14 in 5.0 mi NNW 16.1 mph 23.0 mph N/A Rain Light Rain
4:55 PM 34.7 °F 24.7 °F 30.2 °F 84% 30.16 in 4.0 mi NNW 16.1 mph 24.2 mph N/A Rain Rain
5:15 PM 33.1 °F 21.9 °F 28.9 °F 85% 30.16 in 5.0 mi NNW 18.4 mph 24.2 mph N/A   Light Drizzle
5:35 PM 32.5 °F 21.9 °F 28.4 °F 85% 30.17 in 4.0 mi NNW 16.1 mph 26.5 mph N/A Snow Light Snow
5:55 PM 32.0 °F 21.2 °F 27.5 °F 83% 30.21 in 4.0 mi NNW 16.1 mph 31.1 mph N/A Snow Light Snow
6:15 PM 31.6 °F 21.2 °F 26.6 °F 82% 30.21 in 4.0 mi NNW 15.0 mph - N/A Snow Light Snow
6:35 PM 30.7 °F 19.6 °F 25.7 °F 82% 30.23 in 2.5 mi NNW 16.1 mph 21.9 mph N/A Snow Light Snow
6:55 PM 29.7 °F 20.1 °F 25.0 °F 83% 30.25 in 0.8 mi NNW 11.5 mph - N/A Snow Snow
7:15 PM 28.9 °F 18.6 °F 24.6 °F 84% 30.25 in 1.0 mi NNW 12.7 mph 23.0 mph N/A Snow Snow
7:35 PM 28.2 °F 15.5 °F 23.5 °F 83% 30.26 in 1.2 mi NNW 18.4 mph 25.3 mph N/A Snow Light Snow
7:55 PM 27.5 °F 14.6 °F 23.4 °F 84% 30.27 in 0.8 mi North 18.4 mph 24.2 mph N/A Snow Snow
8:15 PM 27.5 °F 15.4 °F 22.6 °F 82% 30.29 in 1.0 mi NNW 16.1 mph 27.6 mph N/A Snow Light Snow
8:35 PM 27.1 °F 16.4 °F 22.3 °F 82% 30.30 in 1.2 mi NNW 12.7 mph 18.4 mph N/A Snow Light Snow
8:55 PM 26.8 °F 13.3 °F 21.0 °F 79% 30.31 in 7.0 mi North 19.6 mph 33.4 mph N/A Snow Light Snow
9:15 PM 26.6 °F 13.8 °F 20.3 °F 77% 30.31 in 7.0 mi North 17.3 mph 31.1 mph N/A Snow Light Snow
9:55 PM 26.1 °F 12.7 °F 19.8 °F 77% 30.33 in 4.0 mi North 18.4 mph 27.6 mph N/A Snow Light Snow
10:15 PM 25.5 °F 11.6 °F 19.6 °F 78% 30.33 in 3.0 mi North 19.6 mph 27.6 mph N/A Snow Light Snow
10:35 PM 25.2 °F 10.4 °F 19.0 °F 78% 30.35 in 4.0 mi North 21.9 mph 27.6 mph N/A Snow Light Snow
10:55 PM 25.2 °F 10.8 °F 18.5 °F 76% 30.35 in 7.0 mi North 20.7 mph 28.8 mph N/A   Overcast
11:15 PM 25.3 °F 9.4 °F 17.4 °F 72% 30.35 in 10.0 mi North 26.5 mph 32.2 mph N/A   Overcast
11:35 PM 25.2 °F 12.0 °F 17.4 °F 72% 30.36 in 10.0 mi North 17.3 mph 31.1 mph N/A   Overcast
11:55 PM 24.8 °F 10.0 °F 16.9 °F 72% 30.36 in 10.0 mi North 21.9 mph 26.5 mph N/A   Overcast